When you browse on this site, cookies collect data to enhance your experience and personalize the content and advertising you see.
Visit our Privacy Policy to learn more. By continuing to use the site, you agree to this use of cookies and data.
  • In Hungary
  • List of Countries
  • For 7 days
  • Water Temperature
  • Weather Map
  • News
  • Weather Widgets
  • user-avatar
    Login

    Hourly Weather Bolshoe Ramene

    Today, 19 September, Thursday

    Time Temperature Precipitation Wind Pressure Humidity
    00:00 +4°C° 0 mm 3 mps 732 mmHg 96%
    01:00 +4°C° 0 mm 3 mps 732 mmHg 95%
    02:00 +4°C° 0 mm 3 mps 733 mmHg 93%
    03:00 +4°C° 0 mm 3 mps 733 mmHg 93%
    04:00 +4°C° 0 mm 3 mps 733 mmHg 93%
    05:00 +3°C° 0 mm 3 mps 734 mmHg 93%
    06:00 +3°C° 0.1 mm 3 mps 734 mmHg 92%
    07:00 +3°C° 0.1 mm 3 mps 735 mmHg 92%
    08:00 +3°C° 0.1 mm 3 mps 735 mmHg 91%
    09:00 +4°C° 0.1 mm 3 mps 736 mmHg 87%
    10:00 +4°C° 0.1 mm 3 mps 736 mmHg 82%
    11:00 +5°C° 0.1 mm 3 mps 736 mmHg 78%
    12:00 +5°C° 0.1 mm 3 mps 737 mmHg 73%
    13:00 +7°C° 0.1 mm 2 mps 737 mmHg 68%
    14:00 +7°C° 0.1 mm 2 mps 738 mmHg 64%
    15:00 +7°C° 0 mm 2 mps 738 mmHg 67%
    16:00 +7°C° 0 mm 1 mps 738 mmHg 69%
    17:00 +6°C° 0 mm 1 mps 738 mmHg 72%
    18:00 +6°C° 0 mm 1 mps 738 mmHg 75%
    19:00 +5°C° 0 mm 1 mps 739 mmHg 77%
    20:00 +4°C° 0 mm 1 mps 739 mmHg 79%
    21:00 +4°C° 0 mm 1 mps 739 mmHg 81%
    22:00 +4°C° 0 mm 1 mps 739 mmHg 82%
    23:00 +3°C° 0 mm 1 mps 739 mmHg 84%

    Tomorrow, 20 September, Friday

    Time Temperature Precipitation Wind Pressure Humidity
    00:00 +3°C° 0 mm 1 mps 739 mmHg 85%
    01:00 +3°C° 0 mm 1 mps 739 mmHg 86%
    02:00 +3°C° 0 mm 1 mps 739 mmHg 87%
    03:00 +3°C° 0 mm 1 mps 739 mmHg 89%
    04:00 +3°C° 0 mm 1 mps 739 mmHg 90%
    05:00 +2°C° 0 mm 1 mps 739 mmHg 91%
    06:00 +3°C° 0 mm 1 mps 739 mmHg 86%
    07:00 +4°C° 0 mm 1 mps 739 mmHg 82%
    08:00 +5°C° 0 mm 1 mps 739 mmHg 77%
    09:00 +7°C° 0 mm 1 mps 739 mmHg 71%
    10:00 +8°C° 0 mm 1 mps 739 mmHg 64%
    11:00 +9°C° 0 mm 1 mps 739 mmHg 57%
    12:00 +8°C° 0.1 mm 2 mps 739 mmHg 58%
    13:00 +8°C° 0.1 mm 2 mps 739 mmHg 58%
    14:00 +8°C° 0.1 mm 2 mps 739 mmHg 58%
    15:00 +7°C° 0.1 mm 2 mps 739 mmHg 67%
    16:00 +6°C° 0.1 mm 2 mps 739 mmHg 76%
    17:00 +5°C° 0.1 mm 2 mps 739 mmHg 84%
    18:00 +4°C° 0 mm 2 mps 739 mmHg 88%
    19:00 +3°C° 0 mm 2 mps 739 mmHg 92%
    20:00 +2°C° 0 mm 2 mps 740 mmHg 95%
    21:00 +2°C° 0 mm 2 mps 740 mmHg 96%
    22:00 +2°C° 0 mm 2 mps 740 mmHg 96%
    23:00 +1°C° 0 mm 2 mps 740 mmHg 96%

    Day after tomorrow, 21 September, Saturday

    Time Temperature Precipitation Wind Pressure Humidity
    00:00 +1°C° 0 mm 2 mps 740 mmHg 95%
    01:00 -1°C° 0 mm 2 mps 740 mmHg 95%
    02:00 -2°C° 0 mm 2 mps 740 mmHg 94%
    03:00 -2°C° 0 mm 2 mps 739 mmHg 94%
    04:00 -2°C° 0 mm 2 mps 739 mmHg 94%
    05:00 -2°C° 0 mm 2 mps 739 mmHg 94%
    06:00 -1°C° 0 mm 2 mps 739 mmHg 89%
    07:00 +2°C° 0 mm 2 mps 739 mmHg 84%
    08:00 +3°C° 0 mm 2 mps 739 mmHg 79%
    09:00 +3°C° 0 mm 3 mps 738 mmHg 73%
    10:00 +5°C° 0 mm 3 mps 738 mmHg 67%
    11:00 +6°C° 0 mm 4 mps 737 mmHg 60%
    12:00 +5°C° 0.1 mm 4 mps 737 mmHg 69%
    13:00 +4°C° 0.1 mm 4 mps 736 mmHg 79%
    14:00 +4°C° 0.1 mm 4 mps 736 mmHg 88%
    15:00 +3°C° 0.2 mm 4 mps 735 mmHg 90%
    16:00 +3°C° 0.2 mm 4 mps 734 mmHg 92%
    17:00 +3°C° 0.2 mm 4 mps 733 mmHg 94%
    18:00 +3°C° 0.1 mm 4 mps 732 mmHg 94%
    19:00 +3°C° 0.1 mm 4 mps 731 mmHg 95%
    20:00 +3°C° 0.1 mm 3 mps 731 mmHg 95%
    21:00 +3°C° 0.3 mm 3 mps 730 mmHg 95%
    22:00 +3°C° 0.3 mm 3 mps 729 mmHg 96%
    23:00 +3°C° 0.3 mm 3 mps 728 mmHg 96%

    22 September, Sunday

    Time Temperature Precipitation Wind Pressure Humidity
    00:00 +3°C° 0.7 mm 3 mps 727 mmHg 96%
    01:00 +3°C° 0.7 mm 4 mps 726 mmHg 95%
    02:00 +4°C° 0.7 mm 4 mps 725 mmHg 95%
    03:00 +2°C° 0.1 mm 5 mps 725 mmHg 95%
    04:00 +1°C° 0.1 mm 6 mps 725 mmHg 94%
    05:00 -1°C° 0.1 mm 8 mps 725 mmHg 94%
    06:00 -1°C° 0.8 mm 8 mps 725 mmHg 93%
    07:00 -1°C° 0.8 mm 9 mps 726 mmHg 91%
    08:00 -2°C° 0.8 mm 10 mps 727 mmHg 90%
    09:00 0°C° 0.3 mm 10 mps 728 mmHg 85%
    10:00 0°C° 0.3 mm 9 mps 729 mmHg 80%
    11:00 +1°C° 0.3 mm 9 mps 730 mmHg 75%
    12:00 +1°C° 0.1 mm 9 mps 731 mmHg 74%
    13:00 +1°C° 0.1 mm 8 mps 732 mmHg 73%
    14:00 +3°C° 0.1 mm 7 mps 734 mmHg 72%
    15:00 +2°C° 0.1 mm 6 mps 734 mmHg 75%
    16:00 +2°C° 0.1 mm 5 mps 735 mmHg 78%
    17:00 +1°C° 0.1 mm 4 mps 736 mmHg 81%
    18:00 +1°C° 0.1 mm 4 mps 736 mmHg 84%
    19:00 +1°C° 0.1 mm 5 mps 737 mmHg 88%
    20:00 0°C° 0.1 mm 5 mps 737 mmHg 92%
    21:00 0°C° 0 mm 5 mps 738 mmHg 92%
    22:00 -1°C° 0 mm 4 mps 738 mmHg 91%
    23:00 -1°C° 0 mm 4 mps 738 mmHg 90%

    23 September, Monday

    Time Temperature Precipitation Wind Pressure Humidity
    00:00 -1°C° 0 mm 4 mps 739 mmHg 91%
    01:00 -1°C° 0 mm 4 mps 739 mmHg 92%
    02:00 -1°C° 0 mm 4 mps 740 mmHg 92%
    03:00 -1°C° 0 mm 4 mps 740 mmHg 92%
    04:00 -1°C° 0 mm 4 mps 740 mmHg 91%
    05:00 -1°C° 0 mm 4 mps 740 mmHg 91%
    06:00 -1°C° 0 mm 4 mps 740 mmHg 88%
    07:00 -1°C° 0 mm 4 mps 741 mmHg 86%
    08:00 -1°C° 0 mm 4 mps 741 mmHg 83%
    09:00 +1°C° 0 mm 4 mps 741 mmHg 76%
    10:00 +3°C° 0 mm 4 mps 741 mmHg 69%
    11:00 +4°C° 0 mm 4 mps 741 mmHg 62%
    12:00 +5°C° 0.1 mm 4 mps 741 mmHg 63%
    13:00 +5°C° 0.1 mm 4 mps 740 mmHg 64%
    14:00 +5°C° 0.1 mm 5 mps 740 mmHg 65%
    15:00 +4°C° 0 mm 4 mps 740 mmHg 70%
    16:00 +3°C° 0 mm 3 mps 740 mmHg 74%
    17:00 +2°C° 0 mm 3 mps 740 mmHg 78%
    18:00 +2°C° 0 mm 3 mps 740 mmHg 84%
    19:00 +1°C° 0 mm 3 mps 740 mmHg 89%
    20:00 0°C° 0 mm 3 mps 740 mmHg 94%
    21:00 0°C° 0 mm 3 mps 740 mmHg 95%
    22:00 -1°C° 0 mm 3 mps 740 mmHg 96%
    23:00 -1°C° 0 mm 2 mps 740 mmHg 96%

    24 September, Tuesday

    Time Temperature Precipitation Wind Pressure Humidity
    00:00 -1°C° 0 mm 2 mps 740 mmHg 96%
    01:00 -2°C° 0 mm 2 mps 740 mmHg 96%
    02:00 -2°C° 0 mm 2 mps 740 mmHg 97%
    03:00 -3°C° 0 mm 2 mps 740 mmHg 96%
    04:00 -3°C° 0 mm 2 mps 740 mmHg 96%
    05:00 -3°C° 0 mm 2 mps 740 mmHg 96%
    06:00 -2°C° 0 mm 2 mps 740 mmHg 89%
    07:00 +1°C° 0 mm 2 mps 740 mmHg 83%
    08:00 +2°C° 0 mm 2 mps 740 mmHg 77%
    09:00 +3°C° 0 mm 2 mps 740 mmHg 70%
    10:00 +5°C° 0 mm 1 mps 740 mmHg 64%
    11:00 +7°C° 0 mm 1 mps 740 mmHg 57%
    12:00 +7°C° 0 mm 1 mps 740 mmHg 57%
    13:00 +7°C° 0 mm 1 mps 740 mmHg 57%
    14:00 +7°C° 0 mm 1 mps 740 mmHg 57%
    15:00 +6°C° 0 mm 1 mps 740 mmHg 60%
    16:00 +6°C° 0 mm 1 mps 740 mmHg 63%
    17:00 +5°C° 0 mm 1 mps 740 mmHg 66%
    18:00 +4°C° 0 mm 1 mps 740 mmHg 68%
    19:00 +3°C° 0 mm 0 mps 740 mmHg 69%
    20:00 +2°C° 0 mm 0 mps 740 mmHg 70%
    21:00 +2°C° 0 mm 0 mps 740 mmHg 71%
    22:00 +3°C° 0 mm 1 mps 740 mmHg 72%
    23:00 +3°C° 0 mm 1 mps 740 mmHg 73%
    Show more